Voltar ao catálogo

STARLINK-2673

AtivoComunicaçõesVLEO
NORAD 48649·PAYLOAD·🇺🇸 United States

Lançado May 26, 2021 de Cape Canaveral Space Force Station

Loading…

Próximas Passagens (próximas 24 horas)

TLE

AtualizadoSource: CelesTrak SupGP

Época: Sep 14, 2026, 12:35 UTC

1 48649C 21044M   26257.52479167  .00022848  00000+0  73494-3 0  2575
2 48649  53.1596 315.0253 0001219  79.5873  56.8092 15.31682000    10

Acompanhe STARLINK-2673 em tempo real com AllMySat

Download on the App Store